| time (UTC) | temp F | wind direction | speed knots | gust knots | rain 1hr in | rain 24hr in | rain mn in | humidity % | barometer mb |
| 20260505051535 | 58 | 71 | 1.7 | 5.2 | 0.00 | 0.00 | 0.00 | 60 | 1012.1 |
| 20260505041536 | 58 | 88 | 2.6 | 6.1 | 0.00 | 0.00 | 0.00 | 61 | 1011.8 |
| 20260505040036 | 58 | 86 | 1.7 | 3.5 | 0.00 | 0.00 | 0.00 | 61 | 1011.9 |
| 20260505034536 | 57 | 93 | 1.7 | 5.2 | 0.00 | 0.00 | 0.00 | 61 | 1011.7 |
| 20260505033035 | 58 | 122 | 0.9 | 4.3 | 0.00 | 0.00 | 0.00 | 61 | 1011.9 |
| 20260505031530 | 58 | 118 | 0.9 | 3.5 | 0.00 | 0.00 | 0.00 | 61 | 1012.0 |
| 20260505030035 | 57 | 53 | 0.9 | 2.6 | 0.00 | 0.00 | 0.00 | 61 | 1012.1 |
| 20260505024543 | 59 | 90 | 0.0 | 3.5 | 0.00 | 0.00 | 0.00 | 59 | 1012.1 |
| 20260505023043 | 59 | 0 | 0.0 | 1.7 | 0.00 | 0.00 | 0.00 | 59 | 1012.1 |
| 20260505021537 | 58 | 117 | 0.9 | 2.6 | 0.00 | 0.00 | 0.00 | 60 | 1012.1 |
| 20260505020035 | 57 | 105 | 0.9 | 2.6 | 0.00 | 0.00 | 0.00 | 61 | 1012.2 |
| 20260505014541 | 58 | 103 | 0.0 | 1.7 | 0.00 | 0.00 | 0.00 | 60 | 1012.2 |
| 20260505013036 | 58 | 0 | 0.0 | 1.7 | 0.00 | 0.00 | 0.00 | 60 | 1012.2 |
| 20260505011535 | 59 | 103 | 0.0 | 1.7 | 0.00 | 0.00 | 0.00 | 59 | 1012.1 |
| 20260505010031 | 59 | 0 | 0.0 | 1.7 | 0.00 | 0.00 | 0.00 | 58 | 1011.9 |
| 20260505004536 | 61 | 103 | 0.0 | 2.6 | 0.00 | 0.00 | 0.00 | 55 | 1011.8 |
| 20260505003035 | 62 | 82 | 0.0 | 4.3 | 0.00 | 0.00 | 0.00 | 54 | 1011.8 |
| 20260505001546 | 62 | 33 | 0.9 | 2.6 | 0.00 | 0.00 | 0.00 | 53 | 1011.9 |
| 20260505000041 | 63 | 171 | 0.9 | 7.0 | 0.00 | 0.00 | 0.00 | 52 | 1011.8 |
| 20260504234533 | 63 | 172 | 0.0 | 7.8 | 0.00 | 0.00 | 0.00 | 51 | 1011.7 |
| 20260504233036 | 64 | 167 | 0.9 | 7.0 | 0.00 | 0.00 | 0.00 | 50 | 1011.6 |
| 20260504231553 | 64 | 0 | 0.0 | 5.2 | 0.00 | 0.00 | 0.00 | 50 | 1011.5 |
| 20260504230035 | 64 | 0 | 0.0 | 7.0 | 0.00 | 0.00 | 0.00 | 49 | 1011.3 |
| 20260504224538 | 65 | 62 | 3.5 | 13.0 | 0.00 | 0.00 | 0.00 | 48 | 1011.4 |
| 20260504223033 | 65 | 159 | 1.7 | 4.3 | 0.00 | 0.00 | 0.00 | 51 | 1011.5 |
| 20260504221535 | 64 | 0 | 0.0 | 2.6 | 0.00 | 0.00 | 0.00 | 54 | 1011.6 |
| 20260504220036 | 64 | 0 | 0.0 | 5.2 | 0.00 | 0.00 | 0.00 | 53 | 1011.6 |
| 20260504214534 | 64 | 182 | 0.0 | 5.2 | 0.00 | 0.00 | 0.00 | 53 | 1011.6 |
| 20260504213034 | 64 | 0 | 0.0 | 2.6 | 0.00 | 0.00 | 0.00 | 52 | 1011.6 |
| 20260504211539 | 64 | 0 | 0.9 | 6.1 | 0.00 | 0.00 | 0.00 | 52 | 1011.6 |
| 20260504210054 | 64 | 336 | 0.9 | 7.0 | 0.00 | 0.00 | 0.00 | 51 | 1011.6 |
| 20260504204541 | 65 | 292 | 0.9 | 10.4 | 0.00 | 0.00 | 0.00 | 48 | 1011.4 |
| 20260504203037 | 66 | 345 | 0.9 | 7.8 | 0.00 | 0.00 | 0.00 | 45 | 1011.4 |
| 20260504201535 | 67 | 307 | 1.7 | 7.0 | 0.00 | 0.00 | 0.00 | 44 | 1011.3 |
| 20260504200036 | 67 | 321 | 2.6 | 8.7 | 0.00 | 0.00 | 0.00 | 42 | 1011.1 |
| 20260504194550 | 67 | 257 | 0.9 | 10.4 | 0.00 | 0.00 | 0.00 | 44 | 1011.2 |
| 20260504193034 | 67 | 312 | 1.7 | 8.7 | 0.00 | 0.00 | 0.00 | 44 | 1011.5 |
| 20260504191543 | 68 | 207 | 3.5 | 10.4 | 0.00 | 0.00 | 0.00 | 43 | 1011.6 |
| 20260504190043 | 68 | 80 | 1.7 | 9.6 | 0.00 | 0.00 | 0.00 | 43 | 1011.7 |
| 20260504184539 | 67 | 36 | 1.7 | 7.0 | 0.00 | 0.00 | 0.00 | 46 | 1012.0 |
| 20260504183037 | 66 | 64 | 4.3 | 9.6 | 0.00 | 0.00 | 0.00 | 46 | 1011.8 |
| 20260504181543 | 66 | 59 | 1.7 | 12.2 | 0.00 | 0.00 | 0.00 | 51 | 1012.1 |
| 20260504180055 | 63 | 235 | 4.3 | 13.9 | 0.00 | 0.00 | 0.00 | 52 | 1012.4 |
| 20260504174535 | 63 | 114 | 4.3 | 12.2 | 0.00 | 0.00 | 0.00 | 52 | 1012.4 |
| 20260504173036 | 61 | 340 | 0.9 | 7.0 | 0.00 | 0.00 | 0.00 | 56 | 1012.8 |
| 20260504171535 | 61 | 291 | 3.5 | 9.6 | 0.00 | 0.00 | 0.00 | 55 | 1012.8 |
| 20260504081537 | 46 | 106 | 2.6 | 9.6 | 0.00 | 0.00 | 0.00 | 59 | 1014.7 |